Location: Unspecified
(0.0000°N, 0.0000°E)
Time: 14:26:38
(UTC+00:00)

Hubble Space Telescope - Pass Details

Date: 11 April 2021
Orbit: 535 x 539 km, 28.5° (Epoch: 16 April)

Event Time Altitude Azimuth Distance (km) Brightness Sun altitude
Rises 18:53:27 0° 217° (SW) 2,675 4.7 -13.0°
Reaches altitude 10° 18:56:10 10° 200° (SSW) 1,782 3.6 -13.7°
Maximum altitude 18:59:15 20° 151° (SSE) 1,264 2.3 -14.4°
Enters shadow 19:00:01 19° 136° (SE) 1,303 2.3 -14.6°
